Wind from 270 at 5 knots gusting 7

Air temperature 4.4° C
Dewpoint -4.8° C

Last reported at 2014-Apr-23 08:47 UTC.
Time now 2014-Apr-23 09:33 UTC

Location: N 62°41' E 029°49'.
View on Google Maps.

See reports from other nearby stations

Tides Stations Pressure Air Temp Water Temp Dewpoint Dewpoint depression Visibility Wind Speed Wind Dir Waves Ship positions

  
sailing weather and tide predictions

DW5247 Lemo FI weather

date/time (UTC)wind fromknots sea level pressurealtimeterstation pressurevisibilityair tempwater tempwave heightnotes
2014-Apr-23 08:47 270 5 gusting 7 4.4
2014-Apr-23 08:42 180 5 gusting 7 4.4
2014-Apr-23 08:37 203 5 gusting 7 4.4
2014-Apr-23 08:32 180 5 gusting 6 4.4
2014-Apr-23 08:27 248 5 gusting 9 3.9
2014-Apr-23 08:22 113 4 gusting 9 3.9
2014-Apr-23 08:17 248 5 gusting 7 3.9
2014-Apr-23 08:12 248 4 gusting 6 3.9
2014-Apr-23 08:07 270 4 gusting 13 3.3
2014-Apr-23 08:02 225 4 gusting 13 3.3
2014-Apr-23 07:57 3.3
2014-Apr-23 07:52 090 5 gusting 11 3.3
2014-Apr-23 07:47 180 6 gusting 10 3.3
2014-Apr-23 07:42 270 5 gusting 10 3.3
2014-Apr-23 07:37 203 4 gusting 7 3.3
2014-Apr-23 07:32 180 5 gusting 6 3.3
2014-Apr-23 07:27 248 5 gusting 6 3.3
2014-Apr-23 07:22 203 4 gusting 8 3.3
2014-Apr-23 07:17 248 5 gusting 8 3.3
2014-Apr-23 07:12 203 5 gusting 11 3.3
2014-Apr-23 07:07 225 6 gusting 11 2.8
2014-Apr-23 07:02 158 6 gusting 11 2.8
2014-Apr-23 06:57 225 5 gusting 6 2.8
2014-Apr-23 06:52 203 4 gusting 7 2.8
2014-Apr-23 06:47 180 4 gusting 8 2.8
2014-Apr-23 06:42 270 5 gusting 9 2.8
2014-Apr-23 06:37 180 6 gusting 15 2.8
2014-Apr-23 06:32 225 5 gusting 15 2.2
2014-Apr-23 06:27 225 5 gusting 15 2.2
2014-Apr-23 06:22 225 5 gusting 9 2.2
2014-Apr-23 06:17 315 4 gusting 9 2.2
2014-Apr-23 06:12 158 4 gusting 9 2.2
2014-Apr-23 06:07 158 5 gusting 9 2.2
2014-Apr-23 06:02 135 4 gusting 9 2.2
2014-Apr-23 05:57 225 4 gusting 9 2.2
2014-Apr-23 05:52 180 4 gusting 9 2.2
2014-Apr-23 05:47 203 4 gusting 10 2.2
2014-Apr-23 05:42 203 5 gusting 10 2.2
2014-Apr-23 05:37 225 5 gusting 8 2.2
2014-Apr-23 05:32 225 4 gusting 8 2.2
2014-Apr-23 05:27 203 3 gusting 8 2.2
2014-Apr-23 05:22 180 3 gusting 5 2.2
2014-Apr-23 05:17 180 3 gusting 5 2.2
2014-Apr-23 05:12 270 4 gusting 5 2.2
2014-Apr-23 05:07 090 4 gusting 6 1.7
2014-Apr-23 05:02 248 4 gusting 7 1.7
2014-Apr-23 04:57 180 4 gusting 7 1.7
2014-Apr-23 04:52 225 3 gusting 7 1.7
2014-Apr-23 04:47 225 2 gusting 6 1.7
2014-Apr-23 04:42 203 2 gusting 6 1.1
2014-Apr-23 04:37 203 3 gusting 6 1.1
2014-Apr-23 04:32 158 2 gusting 6 1.1
2014-Apr-23 04:27 203 2 gusting 6 1.1
2014-Apr-23 04:22 158 2 gusting 6 1.1
2014-Apr-23 04:17 225 2 gusting 4 1.1
2014-Apr-23 04:12 135 2 gusting 4 0.6
2014-Apr-23 04:07 180 1 gusting 4 0.6
2014-Apr-23 04:02 203 1 gusting 4 0.6
2014-Apr-23 03:57 180 1 gusting 3 0.6
2014-Apr-23 03:52 158 1 gusting 5 0.6
2014-Apr-23 03:47 180 1 gusting 5 0.6
2014-Apr-23 03:42 180 0 gusting 5 0.6
2014-Apr-23 03:37 180 0 gusting 7 -0.0
2014-Apr-23 03:32 180 0 gusting 7 -0.0
2014-Apr-23 03:27 180 1 gusting 7 -0.6
2014-Apr-23 03:22 225 1 gusting 2 -0.6
2014-Apr-23 03:17 180 1 gusting 2 -0.6
2014-Apr-23 03:12 135 2 gusting 7 -0.6
2014-Apr-23 03:07 135 2 gusting 7 -0.6
2014-Apr-23 03:02 203 2 gusting 7 -0.6
2014-Apr-23 02:57 180 1 gusting 4 -0.6
2014-Apr-23 02:52 158 1 gusting 4 -1.1
2014-Apr-23 02:47 180 1 gusting 4 -1.1
2014-Apr-23 02:42 180 2 gusting 3 -1.1
2014-Apr-23 02:37 225 1 gusting 5 -1.1
2014-Apr-23 02:32 180 1 gusting 5 -1.1
2014-Apr-23 02:27 158 2 gusting 5 -1.1
2014-Apr-23 02:22 315 1 gusting 4 -1.1
2014-Apr-23 02:17 180 1 gusting 4 -0.6
2014-Apr-23 02:12 180 1 gusting 2 -0.6
2014-Apr-23 02:07 158 1 gusting 3 -0.6
2014-Apr-23 02:02 203 1 gusting 3 -0.6
2014-Apr-23 01:57 225 2 gusting 4 -0.6
2014-Apr-23 01:52 180 2 gusting 4 -0.6
2014-Apr-23 01:47 180 2 gusting 4 -0.6
2014-Apr-23 01:42 203 2 gusting 3 -0.6
2014-Apr-23 01:37 203 1 gusting 5 -0.6
2014-Apr-23 01:32 180 2 gusting 5 -0.6
2014-Apr-23 01:27 158 2 gusting 4 -0.6
2014-Apr-23 01:22 180 2 gusting 4 -0.6
2014-Apr-23 01:17 158 2 gusting 4 -0.6
2014-Apr-23 01:12 248 2 gusting 3 -0.0
2014-Apr-23 01:07 180 2 gusting 3 -0.0
2014-Apr-23 01:02 180 2 gusting 3 -0.0
2014-Apr-23 00:57 180 2 gusting 4 -0.0
2014-Apr-23 00:52 180 2 gusting 5 -0.0
2014-Apr-23 00:47 225 2 gusting 5 -0.0
2014-Apr-23 00:42 248 2 gusting 4 -0.0
2014-Apr-23 00:37 180 2 gusting 3 -0.0
2014-Apr-23 00:32 180 1 gusting 2 -0.0
2014-Apr-23 00:27 203 2 gusting 4 0.6
2014-Apr-23 00:12 180 1 gusting 2 0.6
2014-Apr-23 00:07 180 1 gusting 2 0.6
2014-Apr-23 00:02 225 1 gusting 4 0.6
2014-Apr-22 23:57 180 1 gusting 5 0.6
2014-Apr-22 23:52 248 2 gusting 5 0.6
2014-Apr-22 23:47 158 2 gusting 5 0.6
2014-Apr-22 23:42 203 1 gusting 3 0.6
2014-Apr-22 23:37 158 1 gusting 4 0.6
2014-Apr-22 23:32 270 1 gusting 4 0.6
2014-Apr-22 23:27 203 1 gusting 3 0.6
2014-Apr-22 23:22 180 1 gusting 3 0.6
2014-Apr-22 23:17 203 1 gusting 3 0.6
2014-Apr-22 23:12 180 1 gusting 3 1.1
2014-Apr-22 23:07 225 1 gusting 3 0.6
2014-Apr-22 23:02 180 1 gusting 3 1.1
2014-Apr-22 22:57 158 1 gusting 2 1.1
2014-Apr-22 22:52 225 1 gusting 2 1.1
2014-Apr-22 22:47 180 1 gusting 2 1.1
2014-Apr-22 22:42 248 1 gusting 4 1.1
2014-Apr-22 22:37 180 1 gusting 4 1.1
2014-Apr-22 22:32 158 1 gusting 4 1.1
2014-Apr-22 22:27 203 1 gusting 4 1.1
2014-Apr-22 22:22 225 1 gusting 3 1.1
2014-Apr-22 22:17 180 1 gusting 3 1.1
2014-Apr-22 22:12 225 1 gusting 2 1.1
2014-Apr-22 22:07 203 2 gusting 2 1.1
2014-Apr-22 22:02 180 1 gusting 3 1.1
2014-Apr-22 21:57 158 1 gusting 3 1.1
2014-Apr-22 21:52 180 1 gusting 3 1.1
2014-Apr-22 21:47 180 1 gusting 2 1.1
2014-Apr-22 21:42 180 1 gusting 2 1.1
2014-Apr-22 21:37 180 1 gusting 2 1.7
2014-Apr-22 21:32 180 1 gusting 2 1.7
2014-Apr-22 21:27 180 1 gusting 2 1.7
2014-Apr-22 21:22 180 1 gusting 2 1.7
2014-Apr-22 21:17 158 1 gusting 1 2.2
2014-Apr-22 21:12 180 0 gusting 1 2.8
2014-Apr-22 21:07 180 0 gusting 2 2.8
2014-Apr-22 20:57 180 0 gusting 1 2.8
2014-Apr-22 20:52 180 0 gusting 1 2.8
2014-Apr-22 20:47 158 0 gusting 1 2.8
2014-Apr-22 20:42 180 0 gusting 1 2.8
2014-Apr-22 20:37 248 3.3
2014-Apr-22 20:32 180 3.3
2014-Apr-22 20:27 203 0 gusting 2 3.3
2014-Apr-22 20:22 225 0 gusting 2 3.3
2014-Apr-22 20:17 180 1 gusting 4 3.3
2014-Apr-22 20:12 203 1 gusting 4 3.3
2014-Apr-22 20:07 293 0 gusting 4 3.3
2014-Apr-22 20:02 248 0 gusting 1 3.9
2014-Apr-22 19:57 180 0 gusting 1 3.9
2014-Apr-22 19:52 180 0 gusting 1 3.9
2014-Apr-22 19:47 180 0 gusting 1 3.9
2014-Apr-22 19:42 225 0 gusting 1 4.4
2014-Apr-22 19:37 180 0 gusting 1 4.4
2014-Apr-22 19:32 203 0 gusting 1 4.4
2014-Apr-22 19:27 203 0 gusting 3 5.0
2014-Apr-22 19:22 158 0 gusting 3 5.0
2014-Apr-22 19:17 225 1 gusting 3 5.0
2014-Apr-22 19:12 225 0 gusting 1 5.6
2014-Apr-22 19:07 203 0 gusting 2 5.6
2014-Apr-22 19:02 203 0 gusting 2 5.6
2014-Apr-22 18:57 225 1 gusting 4 5.6
2014-Apr-22 18:52 135 2 gusting 4 5.6
2014-Apr-22 18:47 225 2 gusting 5 6.1
2014-Apr-22 18:42 315 3 gusting 5 6.1
2014-Apr-22 18:37 248 2 gusting 4 6.1
2014-Apr-22 18:32 248 2 gusting 4 6.1
2014-Apr-22 18:27 225 2 gusting 6 6.1
2014-Apr-22 18:22 225 2 gusting 6 6.1
2014-Apr-22 18:17 248 2 gusting 6 6.7
2014-Apr-22 18:12 225 2 gusting 5 6.7
2014-Apr-22 18:07 180 2 gusting 6 6.7
2014-Apr-22 18:02 203 3 gusting 6 6.7
2014-Apr-22 17:57 248 3 gusting 4 6.7
2014-Apr-22 17:52 225 3 gusting 4 6.7
2014-Apr-22 17:47 248 3 gusting 5 7.2
2014-Apr-22 17:42 248 3 gusting 6 7.2
2014-Apr-22 17:37 180 3 gusting 6 7.2
2014-Apr-22 17:32 203 3 gusting 6 7.2
2014-Apr-22 17:27 225 3 gusting 6 7.8
2014-Apr-22 17:22 225 3 gusting 3 7.8
2014-Apr-22 17:17 225 3 gusting 7 7.8
2014-Apr-22 17:12 203 3 gusting 7 7.8
2014-Apr-22 17:07 180 3 gusting 8 8.3
2014-Apr-22 17:02 248 4 gusting 8 8.3
2014-Apr-22 16:57 248 3 gusting 8 8.9
2014-Apr-22 16:52 180 4 gusting 7 8.9
2014-Apr-22 16:47 203 4 gusting 8 8.9
2014-Apr-22 16:42 225 4 gusting 8 8.9
2014-Apr-22 16:37 248 4 gusting 8 9.4
2014-Apr-22 16:32 248 4 gusting 8 9.4
2014-Apr-22 16:27 248 4 gusting 7 9.4
2014-Apr-22 16:22 225 4 gusting 8 9.4
2014-Apr-22 16:17 270 4 gusting 8 9.4
2014-Apr-22 16:12 270 4 gusting 8 9.4
2014-Apr-22 16:07 248 4 gusting 7 9.4
2014-Apr-22 16:02 203 3 gusting 7 10.0
2014-Apr-22 15:57 225 3 gusting 6 10.0
2014-Apr-22 15:52 158 2 gusting 6 10.0
2014-Apr-22 15:47 203 3 gusting 7 10.0
2014-Apr-22 15:42 225 3 gusting 7 10.6
2014-Apr-22 15:37 203 4 gusting 7 10.6
2014-Apr-22 15:32 203 4 gusting 7 10.6
2014-Apr-22 15:27 225 4 gusting 7 10.6
2014-Apr-22 15:22 248 5 gusting 7 10.6
2014-Apr-22 15:17 270 5 gusting 9 11.1
2014-Apr-22 15:12 180 5 gusting 9 11.1
2014-Apr-22 15:07 225 4 gusting 9 11.1
2014-Apr-22 15:02 315 4 gusting 6 11.1
2014-Apr-22 14:57 158 3 gusting 5 11.1
2014-Apr-22 14:52 225 3 gusting 5 11.1
2014-Apr-22 14:47 180 3 gusting 8 11.7
2014-Apr-22 14:42 023 3 gusting 11 11.7
2014-Apr-22 14:37 338 4 gusting 11 12.2
2014-Apr-22 14:32 158 5 gusting 9 12.2
2014-Apr-22 14:27 113 4 gusting 9 12.2
2014-Apr-22 14:22 158 4 gusting 6 12.8
2014-Apr-22 14:17 135 5 gusting 5 12.8
2014-Apr-22 14:12 248 4 gusting 8 12.8
2014-Apr-22 14:07 248 4 gusting 10 12.8
2014-Apr-22 14:02 248 5 gusting 10 13.3
2014-Apr-22 13:57 225 5 gusting 9 13.3
2014-Apr-22 13:52 135 4 gusting 9 13.3
2014-Apr-22 13:47 180 5 gusting 9 13.3
2014-Apr-22 13:42 248 5 gusting 11 13.3
2014-Apr-22 13:37 045 5 gusting 11 13.3
2014-Apr-22 13:32 203 5 gusting 10 13.3
2014-Apr-22 13:27 068 5 gusting 10 13.3
2014-Apr-22 13:22 225 5 gusting 10 13.3
2014-Apr-22 13:17 203 5 gusting 6 13.3
2014-Apr-22 13:12 203 5 gusting 8 13.3
2014-Apr-22 13:07 225 5 gusting 8 13.3
2014-Apr-22 13:02 270 4 gusting 8 13.3
2014-Apr-22 12:57 180 3 gusting 8 13.3
2014-Apr-22 12:52 248 3 gusting 6 13.3
2014-Apr-22 12:47 180 4 gusting 8 13.3
2014-Apr-22 12:42 225 4 gusting 8 13.3
2014-Apr-22 12:37 180 4 gusting 8 13.3
2014-Apr-22 12:32 270 4 gusting 9 13.3
2014-Apr-22 12:27 203 5 gusting 9 13.3
2014-Apr-22 12:22 158 5 gusting 9 13.3
2014-Apr-22 12:17 158 5 gusting 6 13.9
2014-Apr-22 12:12 225 5 gusting 6 13.9
2014-Apr-22 12:07 158 4 gusting 9 13.3
2014-Apr-22 12:02 293 4 gusting 9 13.3
2014-Apr-22 11:57 248 4 gusting 11 13.3
2014-Apr-22 11:52 180 5 gusting 11 13.3
2014-Apr-22 11:47 113 6 gusting 8 13.3
2014-Apr-22 11:42 180 5 gusting 6 13.3
2014-Apr-22 11:37 203 4 gusting 6 13.3
2014-Apr-22 11:32 270 4 13.3
2014-Apr-22 11:27 13.3
2014-Apr-22 11:22 13.3
2014-Apr-22 11:17 13.3
2014-Apr-22 11:12 13.3
2014-Apr-22 11:07 13.3
2014-Apr-22 11:02 13.3
2014-Apr-22 10:57 13.3
2014-Apr-22 10:52 13.3
2014-Apr-22 10:47 13.3
2014-Apr-22 10:42 13.3
2014-Apr-22 10:37 13.3
2014-Apr-22 10:32 13.3
2014-Apr-22 10:27 13.3
2014-Apr-22 10:22 13.3
2014-Apr-22 10:17 13.3
2014-Apr-22 10:12 13.3
2014-Apr-22 10:07 13.3
2014-Apr-22 10:02 13.3
2014-Apr-22 09:57 13.3
2014-Apr-22 09:52 13.3
2014-Apr-22 09:47 13.3
2014-Apr-22 09:42 13.3
2014-Apr-22 09:37 13.3
2014-Apr-22 09:32 13.3
2014-Apr-22 09:27 13.3
2014-Apr-22 09:22 12.8
2014-Apr-22 09:17 12.8
2014-Apr-22 09:12 12.8
2014-Apr-22 09:07 12.8
2014-Apr-22 09:02 12.8
2014-Apr-22 08:57 12.8
2014-Apr-22 08:52 12.8
2014-Apr-22 08:47 12.8
2014-Apr-22 08:42 12.8
2014-Apr-22 08:37 12.8
2014-Apr-22 08:32 12.8
2014-Apr-22 08:27 12.8
2014-Apr-22 08:22 12.2
2014-Apr-22 08:17 12.2
2014-Apr-22 08:12 12.2
2014-Apr-22 08:07 12.2
2014-Apr-22 08:02 12.2
2014-Apr-22 07:57 12.2
2014-Apr-22 07:52 11.7
2014-Apr-22 07:47 11.7
2014-Apr-22 07:42 11.7
2014-Apr-22 07:37 11.7
2014-Apr-22 07:32 11.7
2014-Apr-22 07:27 11.7
2014-Apr-22 07:22 11.1
2014-Apr-22 07:17 11.1
2014-Apr-22 07:12 11.1
2014-Apr-22 07:07 11.1
2014-Apr-22 07:02 10.6
2014-Apr-22 06:57 10.6
2014-Apr-22 06:52 10.0
2014-Apr-22 06:47 10.0
2014-Apr-22 06:42 10.0
2014-Apr-22 06:37 10.0
2014-Apr-22 06:32 10.0
2014-Apr-22 06:27 9.4
2014-Apr-22 06:22 9.4
2014-Apr-22 06:17 9.4
2014-Apr-22 06:12 9.4
2014-Apr-22 06:07 9.4
2014-Apr-22 06:02 9.4
2014-Apr-22 05:57 9.4
2014-Apr-22 05:52 8.9
2014-Apr-22 05:47 8.9
2014-Apr-22 05:42 8.9
2014-Apr-22 05:37 8.9
2014-Apr-22 05:32 8.3
2014-Apr-22 05:27 8.3
2014-Apr-22 05:22 8.3
2014-Apr-22 05:17 7.8
2014-Apr-22 05:12 7.8
2014-Apr-22 05:07 7.2
2014-Apr-22 05:02 7.2
2014-Apr-22 04:57 6.7
2014-Apr-22 04:52 6.7
2014-Apr-22 04:47 6.1
2014-Apr-22 04:42 6.1
2014-Apr-22 04:37 5.6
2014-Apr-22 04:32 5.0
2014-Apr-22 04:27 5.0
2014-Apr-22 04:22 4.4
2014-Apr-22 04:17 3.9
2014-Apr-22 04:12 3.9
2014-Apr-22 04:07 3.3
2014-Apr-22 04:02 3.3
2014-Apr-22 03:57 3.3
2014-Apr-22 03:52 3.3
2014-Apr-22 03:47 3.3
2014-Apr-22 03:42 2.8
2014-Apr-22 03:37 2.8
2014-Apr-22 03:32 2.8
2014-Apr-22 03:27 2.8
2014-Apr-22 03:22 2.8
2014-Apr-22 03:17 2.8
2014-Apr-22 03:12 2.8
2014-Apr-22 03:07 2.8
2014-Apr-22 03:02 2.8
2014-Apr-22 02:57 2.8
2014-Apr-22 02:52 2.8
2014-Apr-22 02:47 2.8
2014-Apr-22 02:42 135 0 gusting 0 2.8
2014-Apr-22 02:37 135 0 gusting 0 2.8
2014-Apr-22 02:32 135 0 gusting 0 3.3
2014-Apr-22 02:27 135 0 gusting 0 3.3
2014-Apr-22 02:22 135 3.3
2014-Apr-22 02:17 135 3.3
2014-Apr-22 02:12 135 3.3
2014-Apr-22 02:07 135 3.3
2014-Apr-22 02:02 135 3.3
2014-Apr-22 01:57 203 0 gusting 2 3.3
2014-Apr-22 01:52 203 0 gusting 1 3.3
2014-Apr-22 01:47 068 3.3
2014-Apr-22 01:42 068 0 gusting 1 3.3
2014-Apr-22 01:37 068 3.3
2014-Apr-22 01:32 068 3.3
2014-Apr-22 01:27 068 3.3
2014-Apr-22 01:22 068 3.3
2014-Apr-22 01:17 068 3.3
2014-Apr-22 01:12 068 3.3
2014-Apr-22 01:07 068 3.3
2014-Apr-22 01:02 068 3.3
2014-Apr-22 00:57 068 3.3
2014-Apr-22 00:52 068 3.3
2014-Apr-22 00:47 068 3.3
2014-Apr-22 00:42 068 3.3
2014-Apr-22 00:37 068 3.3
2014-Apr-22 00:32 068 3.3
2014-Apr-22 00:27 068 3.3
2014-Apr-22 00:22 068 3.3
2014-Apr-22 00:17 068 3.3
2014-Apr-22 00:12 068 3.3
2014-Apr-22 00:07 068 3.3
2014-Apr-22 00:02 068 3.3
2014-Apr-21 23:57 068 3.9
2014-Apr-21 23:52 068 3.9
2014-Apr-21 23:47 068 3.3
2014-Apr-21 23:42 3.3
2014-Apr-21 23:37 3.9
2014-Apr-21 23:32 3.3
2014-Apr-21 23:27 3.3
2014-Apr-21 23:22 3.3
2014-Apr-21 23:17 3.3
2014-Apr-21 23:12 3.3
2014-Apr-21 23:07 3.9
2014-Apr-21 23:02 3.9
2014-Apr-21 22:57 3.9
2014-Apr-21 22:52 3.9
2014-Apr-21 22:47 3.9
2014-Apr-21 22:42 3.9
2014-Apr-21 22:37 3.9
2014-Apr-21 22:32 3.9
2014-Apr-21 22:27 3.9
2014-Apr-21 22:22 3.9
2014-Apr-21 22:17 4.4
2014-Apr-21 22:12 4.4
2014-Apr-21 22:07 4.4
2014-Apr-21 22:02 4.4
2014-Apr-21 21:57 068 4.4
2014-Apr-21 21:52 068 5.0
2014-Apr-21 21:47 068 5.0
2014-Apr-21 21:42 068 5.0
2014-Apr-21 21:37 068 5.6
2014-Apr-21 21:32 068 5.6
2014-Apr-21 21:27 068 5.6
2014-Apr-21 21:22 068 6.1
2014-Apr-21 21:17 068 6.1
2014-Apr-21 21:12 068 6.7
2014-Apr-21 21:07 068 6.7
2014-Apr-21 20:57 068 6.7
2014-Apr-21 20:52 068 6.7
2014-Apr-21 20:47 068 7.2
2014-Apr-21 20:42 068 7.2
2014-Apr-21 20:37 068 7.2
2014-Apr-21 20:32 068 7.8
2014-Apr-21 20:27 068 7.8
2014-Apr-21 20:22 068 7.8
2014-Apr-21 20:17 068 8.3
2014-Apr-21 20:12 068 8.3
2014-Apr-21 20:07 068 8.3
2014-Apr-21 20:02 068 8.3
2014-Apr-21 19:57 068 8.9
2014-Apr-21 19:52 068 8.9
2014-Apr-21 19:47 068 8.9
2014-Apr-21 19:42 068 8.9
2014-Apr-21 19:37 068 8.9
2014-Apr-21 19:32 068 8.9
2014-Apr-21 19:27 068 8.9
2014-Apr-21 19:22 068 9.4
2014-Apr-21 19:17 068 9.4
2014-Apr-21 19:12 068 9.4
2014-Apr-21 19:07 090 9.4
2014-Apr-21 19:02 090 9.4
2014-Apr-21 18:57 090 9.4
2014-Apr-21 18:42 045 10.0
2014-Apr-21 18:37 045 10.0
2014-Apr-21 18:32 045 10.6
2014-Apr-21 18:27 045 10.6
2014-Apr-21 18:22 045 10.6
2014-Apr-21 18:17 045 11.1
2014-Apr-21 18:12 045 11.1
2014-Apr-21 18:07 045 11.1
2014-Apr-21 18:02 045 11.7
2014-Apr-21 17:57 045 11.7
2014-Apr-21 17:52 045 11.7
2014-Apr-21 17:47 045 12.2
2014-Apr-21 17:42 045 12.2
2014-Apr-21 17:37 045 12.2
2014-Apr-21 17:32 045 12.2
2014-Apr-21 17:27 045 12.2
2014-Apr-21 17:22 045 12.8
2014-Apr-21 17:17 068 12.8
2014-Apr-21 17:12 090 12.8
2014-Apr-21 17:07 090 12.8
2014-Apr-21 17:02 090 12.8
2014-Apr-21 16:57 158 13.3
2014-Apr-21 16:52 135 0 gusting 2 13.3
2014-Apr-21 16:47 068 0 gusting 1 13.3
2014-Apr-21 16:42 113 0 gusting 1 13.3
2014-Apr-21 16:37 158 1 gusting 1 13.3
2014-Apr-21 16:32 068 1 gusting 1 13.3
2014-Apr-21 16:27 068 0 gusting 1 13.3
2014-Apr-21 16:22 068 0 gusting 4 13.3
2014-Apr-21 16:17 090 0 gusting 4 13.3
2014-Apr-21 16:12 113 1 gusting 3 13.9
2014-Apr-21 16:07 113 1 gusting 2 13.9
2014-Apr-21 16:02 068 1 gusting 3 13.9
2014-Apr-21 15:57 180 1 gusting 3 13.9
2014-Apr-21 15:52 113 1 gusting 5 13.9
2014-Apr-21 15:47 180 1 gusting 5 14.4
2014-Apr-21 15:42 068 1 gusting 6 14.4
2014-Apr-21 15:37 113 2 gusting 6 14.4
2014-Apr-21 15:32 113 2 gusting 5 14.4
2014-Apr-21 15:27 090 2 gusting 6 14.4
2014-Apr-21 15:22 135 3 gusting 6 14.4
2014-Apr-21 15:17 113 3 gusting 6 14.4
2014-Apr-21 15:12 113 3 gusting 5 15.0
2014-Apr-21 15:07 068 2 gusting 5 14.4
2014-Apr-21 15:02 135 2 gusting 3 15.0
2014-Apr-21 14:57 113 2 gusting 4 14.4
2014-Apr-21 14:52 068 2 gusting 4 15.0
2014-Apr-21 14:47 113 2 gusting 6 14.4
2014-Apr-21 14:42 113 2 gusting 6 14.4
2014-Apr-21 14:37 023 3 gusting 5 15.0
2014-Apr-21 14:32 180 2 gusting 4 15.0
2014-Apr-21 14:27 090 2 gusting 4 15.0
2014-Apr-21 14:22 158 2 gusting 4 15.0
2014-Apr-21 14:17 090 2 gusting 4 15.0
2014-Apr-21 14:12 113 2 gusting 4 15.0
2014-Apr-21 14:07 113 2 gusting 3 15.0
2014-Apr-21 14:02 045 2 gusting 3 15.0
2014-Apr-21 13:57 135 1 gusting 3 15.0
2014-Apr-21 13:52 090 1 gusting 4 15.0
2014-Apr-21 13:47 158 2 gusting 5 15.0
2014-Apr-21 13:42 068 2 gusting 5 15.0
2014-Apr-21 13:37 068 2 gusting 5 15.0
2014-Apr-21 13:32 180 2 gusting 5 15.0
2014-Apr-21 13:27 090 2 gusting 5 15.0
2014-Apr-21 13:22 090 3 gusting 4 15.0
2014-Apr-21 13:17 068 2 gusting 3 15.0
2014-Apr-21 13:12 090 1 gusting 3 15.0
2014-Apr-21 13:07 068 1 gusting 3 15.0
2014-Apr-21 13:02 248 2 gusting 5 15.0
2014-Apr-21 12:57 090 2 gusting 5 15.0
2014-Apr-21 12:52 045 3 gusting 5 15.0
2014-Apr-21 12:47 045 2 gusting 5 15.6
2014-Apr-21 12:42 113 2 gusting 5 15.0
2014-Apr-21 12:37 023 3 gusting 5 15.6
2014-Apr-21 12:32 068 3 gusting 6 15.6
2014-Apr-21 12:27 113 3 gusting 6 15.6
2014-Apr-21 12:22 090 3 gusting 6 15.6
2014-Apr-21 12:17 045 2 gusting 5 15.0
2014-Apr-21 12:12 113 3 gusting 5 15.6
2014-Apr-21 12:07 090 3 gusting 4 15.6
2014-Apr-21 12:02 068 3 gusting 4 15.6
2014-Apr-21 11:57 135 3 gusting 4 15.6
2014-Apr-21 11:52 068 3 gusting 5 15.6
2014-Apr-21 11:47 068 2 gusting 5 15.0
2014-Apr-21 11:42 158 2 gusting 5 15.0
2014-Apr-21 11:37 090 2 gusting 7 15.0
2014-Apr-21 11:32 135 3 gusting 7 15.0
2014-Apr-21 11:27 068 3 gusting 7 15.0
2014-Apr-21 11:22 113 1 gusting 3 15.0
2014-Apr-21 11:17 113 0 gusting 6 15.0
2014-Apr-21 11:12 113 1 gusting 6 15.0
2014-Apr-21 11:07 338 2 gusting 6 14.4
2014-Apr-21 11:02 135 2 gusting 5 14.4
2014-Apr-21 10:57 090 2 gusting 4 14.4
2014-Apr-21 10:52 113 1 gusting 3 14.4
2014-Apr-21 10:47 338 1 gusting 3 14.4
2014-Apr-21 10:42 135 1 gusting 3 14.4
2014-Apr-21 10:37 338 1 gusting 5 13.9
2014-Apr-21 10:32 270 1 gusting 6 13.9
2014-Apr-21 10:27 023 2 gusting 6 13.9
2014-Apr-21 10:22 023 3 gusting 6 13.9
2014-Apr-21 10:17 023 3 gusting 6 13.9
2014-Apr-21 10:12 338 3 gusting 6 13.9
2014-Apr-21 10:07 315 3 gusting 4 13.9
2014-Apr-21 10:02 068 2 gusting 3 13.3
2014-Apr-21 09:57 13.3
2014-Apr-21 09:52 315 2 gusting 7 13.3
2014-Apr-21 09:47 023 3 gusting 7 13.3
2014-Apr-21 09:42 090 4 gusting 7 13.3
2014-Apr-21 09:37 068 3 gusting 8 12.8
2014-Apr-21 09:32 338 4 gusting 8 12.8
2014-Apr-21 09:27 068 4 gusting 7 12.8
2014-Apr-21 09:22 023 4 gusting 5 12.8
2014-Apr-21 09:17 023 3 gusting 4 12.2
2014-Apr-21 09:12 135 3 gusting 4 12.2
2014-Apr-21 09:07 135 3 gusting 4 12.2
2014-Apr-21 09:02 113 3 gusting 4 12.2